WetterOnline ( https://www.wetteronline.de )

Wetter aktuell Schweinfurt

Aktuelles Wetter: Bad Kissingen (266m)

6-stündlich | Neueste Meldungen
Ortszeit Temperatur Wetter
Mi, 14.04. 8:00 -2.1° C wolkig
Mi, 14.04. 2:00 -1.0° C wolkenlos
Di, 13.04. 20:00 5.9° C wolkenlos
Di, 13.04. 14:00 6.6° C wolkig
Di, 13.04. 8:00 -2.2° C fast wolkenlos
Di, 13.04. 2:00 -1.1° C leicht bewölkt
Mo, 12.04. 20:00 4.2° C leicht bewölkt
Mo, 12.04. 14:00 5.4° C bewölkt
Ortszeit Temperatur Wetter
Mi, 14.04. 10:30 3.7° C bedeckt
Mi, 14.04. 10:20 3.7° C bedeckt
Mi, 14.04. 10:10 3.3° C bedeckt
Mi, 14.04. 10:00 2.8° C bedeckt
Mi, 14.04. 9:50 2.8° C bedeckt
Mi, 14.04. 9:40 2.4° C bedeckt
Mi, 14.04. 9:30 1.7° C bedeckt
Mi, 14.04. 9:00 -0.6° C wolkig
Mi, 14.04. 8:30 -1.3° C fast wolkenlos
Mi, 14.04. 8:00 -2.1° C wolkig
Mi, 14.04. 7:30 -2.2° C wolkig
Mi, 14.04. 7:00 -3.2° C wolkenlos
Ortszeit Relative Feuchte Sichtweite
Mi, 14.04. 8:00 81% 40 km
Mi, 14.04. 2:00 83% 45 km
Di, 13.04. 20:00 49% 60 km
Di, 13.04. 14:00 48% 55 km
Di, 13.04. 8:00 87% 18 km
Di, 13.04. 2:00 90% 40 km
Mo, 12.04. 20:00 67% >70 km
Mo, 12.04. 14:00 51% >70 km
Ortszeit Relative Feuchte Sichtweite
Mi, 14.04. 10:30 65% 50 km
Mi, 14.04. 10:20 65% -
Mi, 14.04. 10:10 65% -
Mi, 14.04. 10:00 73% 50 km
Mi, 14.04. 9:50 73% -
Mi, 14.04. 9:40 74% -
Mi, 14.04. 9:30 80% 35 km
Mi, 14.04. 9:00 79% 40 km
Mi, 14.04. 8:30 82% 55 km
Mi, 14.04. 8:00 81% 40 km
Mi, 14.04. 7:30 86% 40 km
Mi, 14.04. 7:00 92% 35 km
Ortszeit Niederschlagsmenge Niederschlagsart
Mi, 14.04. 8:00 0.0 l/m2 in 12 Std. -
Mi, 14.04. 2:00 0.0 l/m2 in 6 Std. -
Di, 13.04. 20:00 0.1 l/m2 in 12 Std. Regen
Di, 13.04. 14:00 0.0 l/m2 in 6 Std. -
Di, 13.04. 8:00 0.0 l/m2 in 12 Std. -
Di, 13.04. 2:00 0.0 l/m2 in 6 Std. -
Mo, 12.04. 20:00 0.1 l/m2 in 12 Std. Regen
Mo, 12.04. 14:00 0.1 l/m2 in 6 Std. Niederschlag
Ortszeit Niederschlagsmenge Niederschlagsart
Mi, 14.04. 10:30 0.0 l/m2 in 1 Std. -
Mi, 14.04. 10:20 keine Meldung -
Mi, 14.04. 10:10 keine Meldung -
Mi, 14.04. 10:00 0.0 l/m2 in 1 Std. -
Mi, 14.04. 9:50 keine Meldung -
Mi, 14.04. 9:40 keine Meldung -
Mi, 14.04. 9:30 0.0 l/m2 in 1 Std. -
Mi, 14.04. 9:00 0.0 l/m2 in 1 Std. -
Mi, 14.04. 8:30 0.0 l/m2 in 1 Std. -
Mi, 14.04. 8:00 0.0 l/m2 in 1 Std. -
Mi, 14.04. 7:30 0.0 l/m2 in 1 Std. -
Mi, 14.04. 7:00 0.0 l/m2 in 1 Std. -
Ortszeit Stärke Spitze Richtung
km/h Bft. km/h Grad Sektor
Mi, 14.04. 8:00 4 1 7 360° N
Mi, 14.04. 2:00 0 0 18 - -
Di, 13.04. 20:00 14 3 32 320° NW
Di, 13.04. 14:00 18 3 29 310° NW
Di, 13.04. 8:00 4 1 7 20° N
Di, 13.04. 2:00 2 1 11 210° SW
Mo, 12.04. 20:00 7 2 36 330° NW
Mo, 12.04. 14:00 13 3 30 340° N
Ortszeit Stärke Spitze Richtung
km/h Bft. km/h Grad Sektor
Mi, 14.04. 10:30 11 2 22 20° N
Mi, 14.04. 10:20 11 2 - 20° N
Mi, 14.04. 10:10 9 2 - 40° NO
Mi, 14.04. 10:00 6 1 15 360° N
Mi, 14.04. 9:50 6 1 - 360° N
Mi, 14.04. 9:40 4 1 - 10° N
Mi, 14.04. 9:30 4 1 7 140° SO
Mi, 14.04. 9:00 0 0 7 - -
Mi, 14.04. 8:30 4 1 7 360° N
Mi, 14.04. 8:00 4 1 7 360° N
Mi, 14.04. 7:30 2 1 4 - -
Mi, 14.04. 7:00 4 1 4 350° N
Ortszeit Untergrenze Bedeckung Gattung
total tief tief mittel hoch
Mi, 14.04. 8:00 1500 m 6/8 6/8 - - -
Mi, 14.04. 2:00 - 0/8 0/8 - - -
Di, 13.04. 20:00 - 0/8 0/8 - - -
Di, 13.04. 14:00 1470 m 5/8 5/8 - - -
Di, 13.04. 8:00 7500 m 2/8 0/8 - - -
Di, 13.04. 2:00 7200 m 6/8 0/8 - - -
Mo, 12.04. 20:00 1800 m 2/8 2/8 - - -
Mo, 12.04. 14:00 1380 m 8/8 6/8 - - -
Ortszeit Bedeckungsgrad in Achtel und Wolkenuntergrenze
Mi, 14.04. 10:30 1(780m) 8(1500m) 8(2400m)
Mi, 14.04. 10:20 1(780m) 8(1500m) 8(2400m)
Mi, 14.04. 10:10 8(1500m) 8(2400m)
Mi, 14.04. 10:00 2(900m) 8(1500m) 8(2400m)
Mi, 14.04. 9:50 2(900m) 8(1500m) 8(2400m)
Mi, 14.04. 9:40 3(870m) 8(1800m) 8(2400m)
Mi, 14.04. 9:30 1(840m) 8(1500m) 8(2400m)
Mi, 14.04. 9:00 6(1800m) 7(1800m) 7(2400m)
Mi, 14.04. 8:30 2(1800m)
Mi, 14.04. 8:00 6(1500m)
Mi, 14.04. 7:30 5(1500m)
Mi, 14.04. 7:00 keine Wolken
Ortszeit Luftdruck NN (hPa) Tendenz (hPa in 3 Std.)
Mi, 14.04. 8:00 1031 + 0,5
Mi, 14.04. 2:00 1031 - 0,3
Di, 13.04. 20:00 1030 - 0,2
Di, 13.04. 14:00 1031 - 0,5
Di, 13.04. 8:00 1032 + 1,2
Di, 13.04. 2:00 1031 + 0,4
Mo, 12.04. 20:00 1028 + 1,4
Mo, 12.04. 14:00 1027 + 0,8
Ortszeit Luftdruck NN (hPa) Tendenz (hPa in 3 Std.)
Mi, 14.04. 10:30 1031 + 0,2
Mi, 14.04. 10:20 1031 keine Meldung
Mi, 14.04. 10:10 1031 keine Meldung
Mi, 14.04. 10:00 1031 + 0,5
Mi, 14.04. 9:50 1031 keine Meldung
Mi, 14.04. 9:40 1031 keine Meldung
Mi, 14.04. 9:30 1031 + 0,7
Mi, 14.04. 9:00 1032 + 0,7
Mi, 14.04. 8:30 1032 + 0,7
Mi, 14.04. 8:00 1031 + 0,5
Mi, 14.04. 7:30 1031 + 0,2
Mi, 14.04. 7:00 1031 - 0,1
Ortszeit Schneehöhe (cm)
Mi, 14.04. 8:00 0
Mi, 14.04. 2:00 0
Di, 13.04. 20:00 0
Di, 13.04. 14:00 0
Di, 13.04. 8:00 0
Di, 13.04. 2:00 0
Mo, 12.04. 20:00 0
Mo, 12.04. 14:00 0
Ortszeit Schneehöhe (cm)
Mi, 14.04. 10:30 0
Mi, 14.04. 10:20 0
Mi, 14.04. 10:10 0
Mi, 14.04. 10:00 0
Mi, 14.04. 9:50 0
Mi, 14.04. 9:40 0
Mi, 14.04. 9:30 0
Mi, 14.04. 9:00 0
Mi, 14.04. 8:30 0
Mi, 14.04. 8:00 0
Mi, 14.04. 7:30 0
Mi, 14.04. 7:00 0
Link zu dieser Seite / Seite empfehlen

Das Wetter in ...